Showing default

HULIANWANG DIGUI-26, 63693

Orbit data source: Space-Track

HULIANWANG DIGUI-26, 63693 is a payload satellite owned by Zhongguo Xingwang (CN) in LEO that was launched on Mon, 28 Apr 2025 UTC via a CHANG ZHENG 5B/YZ-2 launch vehicle from the Wenchang Satellite Launch Center (WSC). Payload-class satellites include a variety of spacecraft equipped with specific instruments for various scientific and technological missions. These include communications satellites like Starlink; space stations such as the ISS; scientific satellites like the Hubble; Earth observation satellites from companies like Planet Labs, Umbra, and HawkEye 360; GPS; miniature CubeSats for education and research; and military/defense satellites.

Loading next visibility...
Identifier
63693, 2025-086G
Orbit
LEO
Country
Flag of CNCN / PRC
Related business
Manufacturer
CAST?
Mission
Operational Civil Communications
Bus & Motor
XINGWANG CL, Unknown motor
Mass
~800 kg wet, ~800 kg dry
Launch date (UTC)
2025-04-28 (1 year ago)
Launch vehicle
CHANG ZHENG 5B/YZ-2
Launch site
Wenchang Satellite Launch Center (WSC)
Object type
Payload
Rocket body
Debris
Shape & HBR
Box + 2 Pan, 5.0 m
Radar Cross Section
5.935 m², Large (>1 m²)

Expand to show TLE details & history
Last TLE update: 10 hours ago

TLE from 10 hours ago
0 HULIANWANG DIGUI-26
1 63693U 25086G   26171.44703573  .00000020  00000-0  13600-4 0  9994
2 63693  86.5081 312.1081 0001324 116.7549 243.3720 13.24408170 55298
Epoch: 2026-06-20T10:43Z
TLE epoch observation values (Epoch: 2026-06-20T10:43:43.887Z)
Latitude
-0.00006°
Longitude
-117.4863°
Altitude
1,171.272 km
Speed
7.267 km/s
True Right ascension
20h 48m 25s
True Declination
0° 00' 00"
Sunlit
Object was in full shadow at epoch
Visualization orbit readout
Latitude
Unknown
Longitude
Unknown
Altitude
Unknown
Speed
Unknown
Apparent Right ascension
Unknown
Apparent Declination
Unknown
Sunlit
N/A
Visualization observer readout
Local Sidereal Time
07:17:54
Azimuth
Unknown
Elevation
Unknown
Doppler factor
Unknown
Orbital elements
Apogee altitude
1,166.048 km
Perigee altitude
1,164.05 km
Semi-major axis
7,543.186 km
Eccentricity
0.00013
Inclination
86.5081°
RAAN
312.1081°
Arg. of periapsis
116.7549°
True anomaly
243.35844°
Mean anomaly
243.372°
Eccentric anomaly
243.36522°
Mean motion
3.31292 °/min
Orbital period
108.67 mins
BSTAR
0.0000136
Loading maneuver chart data...
Computing Atmospheric mass density...
Loading historical data...
Loading historical data...
Loading historical data...
Loading historical data...
Loading historical data...
Loading historical data...
Loading historical data...

Documentation

Showing up to 5 results
|